Location: De Greiden
(52.9496°N, 5.9137°E)
Time: 01:04:19
(UTC+00:00)

RESURS DK-1 - Pass Details

Date: 24 January 2021
Orbit: 557 x 560 km, 69.9° (Epoch: 26 February)

Event Time Altitude Azimuth Distance (km) Brightness Sun altitude
Rises 16:54:03 0° 234° (SW) 2,737 7.8 -7.2°
Reaches altitude 10° 16:56:21 10° 242° (WSW) 1,846 6.7 -7.6°
Maximum altitude 17:00:14 39° 313° (NW) 853 3.5 -8.1°
Drops below altitude 10° 17:04:09 10° 23° (NNE) 1,856 4.6 -8.7°
Enters shadow 17:05:24 - 28° (NNE) 2,336 5.1 -8.8°
